Regional Weather Roundup
Issued by NWS

Home | Current Version | Previous Version | Graphics & Text | Print | Product List | Glossary On
Versions: 1 2 3 4 5 6 7 8 9 10 11 12 13 14 15 16 17 18 19 20 21 22 23 24 25 26 27 28 29 30 31 32 33 34 35 36 37 38 39 40 41 42 43 44 45 46 47 48 49 50
974
ASUS43 KMPX 082110
RWRMN
WEATHER ROUNDUP FOR MINNESOTA
NATIONAL WEATHER SERVICE TWIN CITIES/CHANHASSEN MN
300 PM CST THU DEC 08 2016


NOTE: "FAIR" INDICATES FEW OR NO CLOUDS BELOW 12,000 FEET WITH NO
SIGNIFICANT WEATHER AND/OR OBSTRUCTIONS TO VISIBILITY. N/A MEANS
CURRENT SKY AND/OR WEATHER CONDITIONS ARE NOT AVAILABLE.

MNZ060>063-068>070-082200-
   Twin Cities Metro

CITY           SKY/WX    TMP DP  RH WIND       PRES   REMARKS
TWIN CITIES    FLURRIES  22  13  68 NW17      30.42R WCI   8
ST PAUL        CLOUDY    23  14  68 W16       30.43R WCI  10
CRYSTAL        CLOUDY    22  11  62 NW12      30.41R WCI  10
BLAINE         FLURRIES  25  16  68 NW17G24   30.40R WCI  11
LAKEVILLE      FLURRIES  21  16  79 W14       30.41R WCI   8
EDEN PRAIRIE   LGT SNOW  23  14  68 NW14      30.41R WCI  11
SOUTH ST PAUL  FLURRIES  24  14  66 NW15      30.41R WCI  11
LAKE ELMO      FLURRIES  25  18  74 NW13G20   30.40R WCI  13
$$
MNZ001>005-007-008-013>017-022>024-027-028-082200-
   Northwest Minnesota

CITY           SKY/WX    TMP DP  RH WIND       PRES   REMARKS
BEMIDJI        FLURRIES  18  13  79 NW9       30.41R WCI   7
HALLOCK        FLURRIES  16  10  79 NW14      30.54R WCI   1
ROSEAU         FLURRIES  18  12  79 W9        30.47R WCI   6
WARROAD        CLOUDY    18  10  73 NW10      30.46R WCI   6
THIEF RVR FALL CLOUDY    15  11  83 NW14      30.50R WCI   0
CROOKSTON      LGT SNOW  14  10  85 N16       30.54S WCI  -2
FOSSTON        LGT SNOW  16  10  79 NW12      30.47R WCI   3
DETROIT LAKES  LGT SNOW  16  12  86 NW15G21   30.48R WCI   1
MOORHEAD       MIX PCPN  14  10  85 NW21      30.55R WCI  -4
PARK RAPIDS    FLURRIES  18   9  68 NW12      30.42R WCI   5
$$
MNZ006-009>011-018-025>026-082200-
   North Central Minnesota

CITY           SKY/WX    TMP DP  RH WIND       PRES   REMARKS
BAUDETTE       FLURRIES  18   8  65 NW17G25   30.41R WCI   3
FLAG ISLAND    CLOUDY    16  10  79 NW23      30.44R WCI  -2
INTL FALLS     CLOUDY    19  11  70 N12       30.36R HAZE    WCI   7
WASKISH        MOCLDY    19  12  73 NW15G21   30.42R WCI   5
BIG FORK       FLURRIES  21  12  68 NW7       30.36R WCI  13
LONGVILLE      LGT SNOW  19  16  86 W9        30.39R WCI   9
GRAND RAPIDS   FLURRIES  22  14  71 NW13      30.36R WCI  10
CRANE LAKE     LGT SNOW  18  16  93 N5        30.34R VSB 1   WCI  11
ORR            CLOUDY    18  10  73 NW13G20   30.30R WCI   4
COOK           LGT SNOW  19  16  86 NW8       30.32R VSB 1   WCI   9
$$
MNZ012-019>021-037-082200-
   Northeast Minnesota

CITY           SKY/WX    TMP DP  RH WIND       PRES   REMARKS
DULUTH         MOCLDY    22  14  71 NW15G25   30.28R WCI   9
ELY            LGT SNOW  19  12  73 NW12G17   30.28R WCI   7
HIBBING        CLOUDY    19  11  70 NW14      30.31R WCI   6
EVELETH        FLURRIES  22  13  67 NW16      30.31R WCI   9
DULUTH HARBOR  CLOUDY    27  16  63 NW7       30.35R WCI  19
TWO HARBORS    PTCLDY    27  16  63 NW9G16    30.26R WCI  17
SILVER BAY     FLURRIES  25  18  74 NW6       30.25R WCI  18
GRAND MARAIS     N/A     24  14  65 NW9G17    30.27R WCI  14
G MARAIS ARPRT LGT SNOW  16   9  73 NW15G21   30.18R WCI   1
$$
MNZ029>031-032-039>041-046>048-054>057-064-082200-
   West Central Minnesota

CITY           SKY/WX    TMP DP  RH WIND       PRES   REMARKS
FERGUS FALLS   LGT SNOW  12   9  85 NW20      30.56R WCI  -6
WHEATON        CLOUDY    16  10  79 NW17      30.57R WCI   0
MORRIS         FLURRIES  16   9  73 NW23G29   30.50R WCI  -2
ALEXANDRIA     LGT SNOW  15   9  76 NW20      30.46R WCI  -2
ELBOW LAKE     LGT SNOW  13  10  87 NW20      30.51R WCI  -5
WADENA         FLURRIES  14   9  79 NW13G21   30.44R WCI   0
GLENWOOD       LGT SNOW  14  10  85 NW16      30.46R WCI  -2
APPLETON       FLURRIES  18  10  73 NW15G23   30.53R WCI   3
BENSON         FLURRIES  16   9  73 N20G26    30.50R WCI  -1
ORTONVILLE     FLURRIES  16   9  73 NW18G25   30.53R WCI  -1
MADISON        CLOUDY    19  10  68 NW12G22   30.54R WCI   7
WILLMAR        LGT SNOW  18  10  73 NW24G30   30.49R WCI   0
$$
MNZ033>034-036-042>043-049>051-058-059-082200-
   Central Minnesota

CITY           SKY/WX    TMP DP  RH WIND       PRES   REMARKS
ST CLOUD       FLURRIES  20  12  71 NW18      30.42R WCI   5
PAYNESVILLE    CLOUDY    17  11  76 NW15G25   30.46R WCI   2
AITKIN         MIX PCPN  25  12  58 NW6       30.36R WCI  18
PINE RIVER     FLURRIES  19  12  73 NW10      30.42R WCI   8
BRAINERD       CLOUDY    20  11  68 NW13      30.40R WCI   7
STAPLES        LGT SNOW  16  10  79 NW17      30.43R WCI   0
LONG PRAIRIE   FLURRIES  18  10  73 W18       30.44R WCI   2
LITTLE FALLS   FLURRIES  19  10  68 W14       30.43R WCI   6
LITCHFIELD     CLOUDY    19  10  68 NW12      30.45R WCI   7
BUFFALO        FLURRIES  21  12  68 W13       30.44R WCI   9
MAPLE LAKE     LGT SNOW  22  16  78 NW13      30.43R WCI  10
HUTCHINSON     LGT SNOW  20  14  77 NW18      30.46R WCI   4
$$
MNZ037-044-045-052-053-082200-
   East Central Minnesota

CITY           SKY/WX    TMP DP  RH WIND       PRES   REMARKS
PRINCETON      FLURRIES  23  14  68 NW12G21   30.40R WCI  12
MORA           FLURRIES  23  14  68 NW8       30.39R WCI  14
CAMBRIDGE      FLURRIES  25  14  63 W13       30.38R WCI  13
RUSH CITY      CLOUDY    25  16  68 NW13G18   30.38R WCI  13
MOOSE LAKE     CLOUDY    23  14  68 NW8       30.33R WCI  14
HINCKLEY       CLOUDY    25  16  68 NW13G18   30.36R WCI  13
CLOQUET        CLOUDY    23  12  63 NW13      30.31R WCI  11
MCGREGOR       CLOUDY    23  18  80 NW9       30.36R WCI  13
$$
MNZ071>073-080-081-089-090-097-098-082200-
   Southwest Minnesota

CITY           SKY/WX    TMP DP  RH WIND       PRES   REMARKS
MONTEVIDEO     LGT SNOW  18  10  73 N13G24    30.54R WCI   4
GRANITE FALLS  FLURRIES  20  13  73 W21G28    30.53R WCI   4
CANBY          PTSUNNY   19  10  67 W20G25    30.55R WCI   3
MARSHALL       FLURRIES  17   9  70 NW22G28   30.51R WCI   0
REDWOOD FALLS  FLURRIES  18   9  68 NW13      30.49R WCI   5
OLIVIA         LGT SNOW  19  12  73 NW20G28   30.48R WCI   4
PIPESTONE      PTSUNNY   16   9  73 NW15G23   30.50R WCI   1
WINDOM         FLURRIES  18  10  73 NW20G30   30.47R WCI   1
WORTHINGTON    FLURRIES  18  10  71 NW21G26   30.49R WCI   1
JACKSON        PTSUNNY   19  10  68 NW18G29   30.47R WCI   4
TRACY          MOSUNNY   20  12  73 NW18      30.50S WCI   4
SLAYTON        FLURRIES  17  10  73 NW24      30.48S WCI  -1
$$
MNZ065>067-074>077-082>085-091>093-082200-
   South Central Minnesota

CITY           SKY/WX    TMP DP  RH WIND       PRES   REMARKS
NEW ULM        FLURRIES  18  10  73 NW24G30   30.46S WCI   0
ST JAMES       PTSUNNY   19  12  73 NW20G31   30.48R WCI   4
FAIRMONT       PTSUNNY   20  11  68 NW22G31   30.46S WCI   3
GLENCOE        CLOUDY    21  15  76 NW16G28   30.44R WCI   7
OWATONNA       LGT SNOW  19  14  79 W18       30.41R WCI   4
WASECA         LGT SNOW  19  14  79 NW21      30.44R WCI   3
ALBERT LEA     FLURRIES  21  16  79 NW10G17   30.42R WCI  10
$$
MNZ078>079-086>088-094>096-082200-
   Southeast Minnesota

CITY           SKY/WX    TMP DP  RH WIND       PRES   REMARKS
ROCHESTER      FLURRIES  20  15  81 NW21      30.36R WCI   4
RED WING       FLURRIES  25  14  63 NW12G17   30.38R WCI  14
STANTON        FLURRIES  24  17  74 NW14      30.40R WCI  12
DODGE CENTER   LGT SNOW  19  16  86 W15G22    30.38R WCI   5
WINONA         FLURRIES  27  19  74 NW10      30.38R WCI  17
AUSTIN         FLURRIES  19  12  73 NW18G28   30.40R WCI   4
PRESTON        FLURRIES  20  15  80 NW18      30.37R WCI   5
$$
ABBREVIATIONS USED IN REMARKS
   TC - TEMPERATURES IN CELSIUS
  WCI - WIND CHILL INDEX
   HX - HEAT INDEX
  VSB - VISIBILITY
$$




USA.gov is the U.S. government's official web portal to all federal, state and local government web resources and services.